When you browse on this site, cookies collect data to enhance your experience and personalize the content and advertising you see.
Visit our Privacy Policy to learn more. By continuing to use the site, you agree to this use of cookies and data.
  • Em Portugal
  • Lista de países
  • Para 7 dias
  • Temperatura da água
  • Mapa do tempo
  • Widgets de tempo
  • user-avatar
    Iniciar Sessão

    Previsão horária em Letowe

    Hoje, 22 Janeiro, Quarta-feira

    Tempo Temperatura Precipitação Vento Pressão Humidade
    00:00 -2°C° 0 mm 2 m/s 727 mmHg 61%
    01:00 0°C° 0 mm 1 m/s 726 mmHg 61%
    02:00 0°C° 0 mm 1 m/s 726 mmHg 61%
    03:00 0°C° 0 mm 1 m/s 725 mmHg 62%
    04:00 0°C° 0 mm 1 m/s 724 mmHg 63%
    05:00 -3°C° 0 mm 2 m/s 724 mmHg 63%
    06:00 -3°C° 0 mm 2 m/s 723 mmHg 63%
    07:00 -3°C° 0 mm 2 m/s 723 mmHg 63%
    08:00 -2°C° 0 mm 2 m/s 723 mmHg 60%
    09:00 -1°C° 0 mm 2 m/s 723 mmHg 57%
    10:00 +2°C° 0 mm 2 m/s 723 mmHg 55%
    11:00 +2°C° 0 mm 2 m/s 722 mmHg 55%
    12:00 +1°C° 0 mm 3 m/s 722 mmHg 56%
    13:00 +2°C° 0 mm 3 m/s 722 mmHg 57%
    14:00 +1°C° 0 mm 3 m/s 721 mmHg 66%
    15:00 -1°C° 0 mm 4 m/s 721 mmHg 74%
    16:00 -2°C° 0 mm 4 m/s 720 mmHg 83%
    17:00 -2°C° 0.2 mm 4 m/s 721 mmHg 87%
    18:00 -2°C° 0.2 mm 4 m/s 721 mmHg 92%
    19:00 -2°C° 0.2 mm 4 m/s 722 mmHg 96%
    20:00 -1°C° 0.2 mm 3 m/s 722 mmHg 95%
    21:00 -1°C° 0.2 mm 3 m/s 722 mmHg 95%
    22:00 -1°C° 0.2 mm 3 m/s 722 mmHg 94%
    23:00 -1°C° 0.1 mm 3 m/s 723 mmHg 95%

    Amanhã, 23 Janeiro, Quinta-feira

    Tempo Temperatura Precipitação Vento Pressão Humidade
    00:00 -2°C° 0.1 mm 3 m/s 724 mmHg 95%
    01:00 -2°C° 0.1 mm 2 m/s 724 mmHg 96%
    02:00 -2°C° 0.1 mm 2 m/s 724 mmHg 95%
    03:00 -2°C° 0.1 mm 3 m/s 724 mmHg 95%
    04:00 -2°C° 0.1 mm 3 m/s 724 mmHg 94%
    05:00 -2°C° 0 mm 2 m/s 725 mmHg 93%
    06:00 -2°C° 0 mm 2 m/s 725 mmHg 91%
    07:00 -3°C° 0 mm 2 m/s 726 mmHg 90%
    08:00 -2°C° 0 mm 2 m/s 726 mmHg 85%
    09:00 -2°C° 0 mm 2 m/s 726 mmHg 80%
    10:00 -1°C° 0 mm 2 m/s 727 mmHg 76%
    11:00 +2°C° 0 mm 1 m/s 726 mmHg 72%
    12:00 +2°C° 0 mm 1 m/s 726 mmHg 68%
    13:00 +3°C° 0 mm 1 m/s 726 mmHg 64%
    14:00 +2°C° 0 mm 1 m/s 726 mmHg 69%
    15:00 +1°C° 0 mm 1 m/s 725 mmHg 74%
    16:00 -1°C° 0 mm 0 m/s 725 mmHg 79%
    17:00 -1°C° 0 mm 1 m/s 724 mmHg 79%
    18:00 -1°C° 0 mm 1 m/s 724 mmHg 79%
    19:00 -2°C° 0 mm 1 m/s 724 mmHg 79%
    20:00 -2°C° 0 mm 1 m/s 724 mmHg 78%
    21:00 -2°C° 0 mm 1 m/s 724 mmHg 76%
    22:00 -2°C° 0 mm 1 m/s 724 mmHg 75%
    23:00 -2°C° 0 mm 1 m/s 724 mmHg 73%

    Depois de amanhã, 24 Janeiro, Sexta-feira

    Tempo Temperatura Precipitação Vento Pressão Humidade
    00:00 -2°C° 0 mm 1 m/s 724 mmHg 72%
    01:00 -2°C° 0 mm 1 m/s 723 mmHg 70%
    02:00 -2°C° 0 mm 1 m/s 723 mmHg 68%
    03:00 -2°C° 0 mm 1 m/s 722 mmHg 67%
    04:00 -2°C° 0 mm 1 m/s 722 mmHg 65%
    05:00 -2°C° 0 mm 1 m/s 722 mmHg 65%
    06:00 -2°C° 0 mm 1 m/s 722 mmHg 65%
    07:00 -2°C° 0 mm 1 m/s 722 mmHg 64%
    08:00 -1°C° 0 mm 1 m/s 722 mmHg 62%
    09:00 0°C° 0 mm 1 m/s 722 mmHg 60%
    10:00 +1°C° 0 mm 1 m/s 722 mmHg 58%
    11:00 +2°C° 0 mm 1 m/s 721 mmHg 58%
    12:00 +3°C° 0 mm 1 m/s 721 mmHg 58%
    13:00 +4°C° 0 mm 1 m/s 721 mmHg 57%
    14:00 +3°C° 0 mm 1 m/s 720 mmHg 63%
    15:00 +2°C° 0 mm 1 m/s 719 mmHg 68%
    16:00 0°C° 0 mm 1 m/s 719 mmHg 73%
    17:00 0°C° 0 mm 1 m/s 719 mmHg 74%
    18:00 -1°C° 0 mm 1 m/s 719 mmHg 74%
    19:00 -1°C° 0 mm 1 m/s 719 mmHg 75%
    20:00 -1°C° 0 mm 1 m/s 719 mmHg 75%
    21:00 -2°C° 0 mm 1 m/s 719 mmHg 74%
    22:00 -2°C° 0 mm 1 m/s 718 mmHg 74%
    23:00 -2°C° 0 mm 1 m/s 718 mmHg 74%

    25 Janeiro, Sábado

    Tempo Temperatura Precipitação Vento Pressão Humidade
    00:00 -2°C° 0 mm 1 m/s 718 mmHg 73%
    01:00 -2°C° 0 mm 1 m/s 718 mmHg 73%
    02:00 -2°C° 0 mm 1 m/s 718 mmHg 72%
    03:00 -2°C° 0 mm 1 m/s 718 mmHg 72%
    04:00 -2°C° 0 mm 1 m/s 718 mmHg 71%
    05:00 -2°C° 0 mm 1 m/s 718 mmHg 71%
    06:00 -2°C° 0 mm 1 m/s 718 mmHg 71%
    07:00 -2°C° 0 mm 1 m/s 718 mmHg 71%
    08:00 -1°C° 0 mm 1 m/s 718 mmHg 67%
    09:00 0°C° 0 mm 1 m/s 719 mmHg 64%
    10:00 +1°C° 0 mm 0 m/s 719 mmHg 60%
    11:00 +1°C° 0 mm 0 m/s 719 mmHg 59%
    12:00 +2°C° 0 mm 0 m/s 719 mmHg 58%
    13:00 +3°C° 0 mm 0 m/s 719 mmHg 57%
    14:00 +2°C° 0 mm 0 m/s 718 mmHg 62%
    15:00 +1°C° 0 mm 0 m/s 718 mmHg 68%
    16:00 0°C° 0 mm 0 m/s 718 mmHg 73%
    17:00 -1°C° 0 mm 0 m/s 718 mmHg 75%
    18:00 -1°C° 0 mm 0 m/s 718 mmHg 76%
    19:00 -1°C° 0 mm 1 m/s 718 mmHg 78%
    20:00 -1°C° 0 mm 1 m/s 718 mmHg 78%
    21:00 -2°C° 0 mm 0 m/s 718 mmHg 78%
    22:00 -2°C° 0 mm 0 m/s 718 mmHg 79%
    23:00 -2°C° 0 mm 0 m/s 718 mmHg 79%

    26 Janeiro, Domingo

    Tempo Temperatura Precipitação Vento Pressão Humidade
    00:00 -1°C° 0 mm 1 m/s 718 mmHg 79%
    01:00 -1°C° 0 mm 1 m/s 718 mmHg 79%
    02:00 -1°C° 0 mm 1 m/s 718 mmHg 79%
    03:00 -1°C° 0 mm 1 m/s 718 mmHg 80%
    04:00 -1°C° 0 mm 1 m/s 718 mmHg 80%
    05:00 -1°C° 0 mm 1 m/s 718 mmHg 81%
    06:00 -1°C° 0 mm 1 m/s 718 mmHg 82%
    07:00 -1°C° 0 mm 1 m/s 717 mmHg 83%
    08:00 0°C° 0 mm 1 m/s 718 mmHg 81%
    09:00 +1°C° 0 mm 1 m/s 718 mmHg 79%
    10:00 +2°C° 0 mm 1 m/s 718 mmHg 77%
    11:00 +3°C° 0 mm 1 m/s 718 mmHg 76%
    12:00 +4°C° 0 mm 1 m/s 718 mmHg 75%
    13:00 +5°C° 0 mm 1 m/s 718 mmHg 74%
    14:00 +4°C° 0 mm 1 m/s 717 mmHg 78%
    15:00 +3°C° 0 mm 1 m/s 717 mmHg 83%
    16:00 +2°C° 0 mm 1 m/s 717 mmHg 87%
    17:00 +1°C° 0 mm 1 m/s 717 mmHg 88%
    18:00 +1°C° 0 mm 1 m/s 717 mmHg 89%
    19:00 +1°C° 0 mm 1 m/s 717 mmHg 89%
    20:00 +1°C° 0 mm 1 m/s 717 mmHg 89%
    21:00 +1°C° 0 mm 1 m/s 717 mmHg 89%
    22:00 +1°C° 0 mm 1 m/s 717 mmHg 89%
    23:00 -1°C° 0 mm 2 m/s 717 mmHg 90%

    27 Janeiro, Segunda-feira

    Tempo Temperatura Precipitação Vento Pressão Humidade
    00:00 +1°C° 0 mm 2 m/s 717 mmHg 91%
    01:00 +1°C° 0 mm 2 m/s 717 mmHg 91%
    02:00 +1°C° 0.2 mm 2 m/s 717 mmHg 93%
    03:00 +1°C° 0.2 mm 2 m/s 717 mmHg 94%
    04:00 +1°C° 0.2 mm 2 m/s 717 mmHg 96%
    05:00 +1°C° 0.3 mm 2 m/s 718 mmHg 96%
    06:00 +1°C° 0.3 mm 2 m/s 718 mmHg 97%
    07:00 +2°C° 0.3 mm 2 m/s 718 mmHg 97%
    08:00 +2°C° 0.2 mm 2 m/s 719 mmHg 96%
    09:00 +2°C° 0.2 mm 2 m/s 719 mmHg 96%
    10:00 +3°C° 0.2 mm 2 m/s 720 mmHg 95%
    11:00 +3°C° 0 mm 2 m/s 720 mmHg 91%
    12:00 +4°C° 0 mm 2 m/s 720 mmHg 86%
    13:00 +5°C° 0 mm 2 m/s 720 mmHg 82%
    14:00 +4°C° 0 mm 2 m/s 720 mmHg 84%
    15:00 +3°C° 0 mm 2 m/s 719 mmHg 86%
    16:00 +2°C° 0 mm 2 m/s 719 mmHg 89%
    17:00 +2°C° 0 mm 2 m/s 719 mmHg 88%
    18:00 +1°C° 0 mm 2 m/s 719 mmHg 88%
    19:00 +1°C° 0 mm 2 m/s 720 mmHg 88%
    20:00 +1°C° 0 mm 2 m/s 720 mmHg 88%
    21:00 +1°C° 0 mm 2 m/s 720 mmHg 88%
    22:00 +1°C° 0 mm 2 m/s 720 mmHg 88%
    23:00 +1°C° 0 mm 2 m/s 719 mmHg 88%
    Mostrar mais